PBO Station Position Time Series. Reference Frame : NAM14
Format Version,1.1.0
4-character ID,RMDB
Station name,RMDB
Begin Date, 2005-11-16
End Date, 2019-07-25
Release Date, 2019-10-03
Reference position, 44.2597670873 North Latitude, -121.1478818005 East Longitude, 919.92256 meters elevation,
Date, North (mm), East (mm), Vertical (mm), North Std. Deviation (mm), East Std. Deviation (mm),              Vertical Std. Deviation (mm), Quality,
2005-11-16,0.00, 0.00, 0.00, 2.67, 1.88, 8.29, repro,
2005-11-17,-0.12, 1.05, -1.27, 2.52, 1.74, 7.73, repro,
2005-11-18,-0.05, 1.41, -3.15, 2.53, 1.74, 7.76, repro,
2005-11-19,0.41, 0.43, 1.83, 2.52, 1.74, 7.78, repro,
2005-11-20,-0.57, 1.00, 1.15, 2.59, 1.77, 7.96, repro,
2005-11-21,0.43, 0.30, 6.22, 2.79, 1.90, 8.39, repro,
2005-11-22,-0.73, 0.92, 8.27, 2.60, 1.83, 8.05, repro,
2005-11-23,-0.69, 0.99, 8.46, 2.63, 1.90, 8.33, repro,
2005-11-24,0.51, 0.60, 9.20, 2.55, 1.81, 8.04, repro,
2005-11-25,-0.51, -0.88, 11.16, 2.55, 1.77, 7.91, repro,
2005-11-26,-0.82, -1.27, 17.16, 2.68, 1.86, 8.41, repro,
2005-11-27,-1.51, -0.37, 8.15, 2.65, 1.85, 8.33, repro,
2005-11-28,0.19, 0.88, 5.42, 2.66, 1.87, 8.35, repro,
2005-11-29,-1.12, -0.05, 1.32, 2.72, 1.89, 8.39, repro,
2005-11-30,-0.35, -2.18, -0.96, 3.23, 2.27, 10.35, repro,
2005-12-01,-1.70, 1.99, 6.96, 2.55, 1.75, 7.79, repro,
2005-12-02,-7.02, 9.52, 11.13, 2.56, 1.76, 7.82, repro,
2005-12-03,-0.93, -0.45, 8.56, 2.56, 1.76, 7.84, repro,
2005-12-04,-0.23, 0.87, 1.96, 2.56, 1.77, 7.86, repro,
2005-12-05,0.04, 0.29, -1.22, 2.55, 1.76, 7.80, repro,
2005-12-06,-0.20, 0.62, 3.19, 2.55, 1.75, 7.77, repro,
2005-12-07,1.14, 0.26, 7.65, 2.86, 1.87, 8.58, repro,
2005-12-08,1.03, -7.05, -9.91, 2.72, 1.85, 8.35, repro,
2005-12-09,-13.54, -11.16, -13.56, 2.58, 1.77, 7.85, repro,
2005-12-10,-0.25, -0.32, 4.46, 2.62, 1.81, 8.10, repro,
2005-12-11,0.29, 0.20, 8.67, 2.62, 1.80, 8.12, repro,
2005-12-12,-0.28, -0.40, 5.42, 2.55, 1.75, 7.79, repro,
2005-12-13,-0.30, -0.46, 6.43, 2.60, 1.79, 8.02, repro,
2005-12-14,0.27, -0.41, 0.14, 2.61, 1.80, 8.08, repro,
2005-12-15,0.89, -0.05, -0.00, 2.70, 1.84, 8.23, repro,
2005-12-16,0.43, -0.29, 4.14, 2.67, 1.81, 7.96, repro,
2005-12-17,0.94, -1.09, 5.28, 2.74, 1.87, 8.25, repro,
2005-12-18,-0.09, 0.12, 3.11, 2.73, 1.89, 8.41, repro,
2005-12-19,2.78, 4.64, 2.38, 2.74, 1.88, 8.26, repro,
2005-12-20,4.75, 4.70, 19.13, 2.61, 1.79, 7.93, repro,
2005-12-21,0.21, -0.90, 5.44, 2.64, 1.83, 8.07, repro,
2005-12-22,-3.43, -2.66, 6.45, 2.62, 1.85, 8.12, repro,
2005-12-23,-0.17, -2.31, -2.32, 2.75, 1.86, 8.37, repro,
2005-12-24,-2.70, -0.54, -2.21, 3.14, 2.21, 9.73, repro,
2005-12-25,-1.38, -0.17, 9.69, 2.73, 1.88, 8.22, repro,
2005-12-26,2.16, -0.59, 6.64, 2.72, 1.84, 8.11, repro,
2005-12-27,0.31, 1.18, 4.00, 2.87, 1.98, 8.60, repro,
2005-12-28,-1.70, 0.91, 7.48, 2.77, 1.90, 8.31, repro,
2005-12-29,-2.08, -0.33, 3.10, 2.97, 2.02, 8.96, repro,
2005-12-30,-1.28, -0.68, 15.25, 3.19, 2.19, 9.45, repro,
2005-12-31,0.58, 0.32, 13.41, 2.99, 2.05, 9.00, repro,
2006-01-01,0.79, 1.68, 14.31, 2.97, 2.05, 8.97, repro,
2006-01-02,-1.28, -1.34, 7.28, 2.73, 1.86, 8.18, repro,
2006-01-03,-2.89, -0.80, 8.77, 3.43, 2.41, 10.59, repro,
2006-01-04,-0.65, -0.18, 3.09, 3.01, 2.11, 9.16, repro,
2006-01-05,-0.36, -0.64, -9.99, 2.98, 2.08, 8.97, repro,
2006-01-06,3.46, 0.86, -12.22, 3.78, 2.64, 11.47, repro,
2006-01-07,-1.04, -1.78, 5.75, 2.85, 1.95, 8.53, repro,
2006-01-08,2.55, -0.71, 1.61, 2.96, 2.10, 8.97, repro,
2006-01-09,-0.05, -1.19, 2.93, 2.88, 2.04, 8.88, repro,
2006-01-10,-2.77, -1.04, 8.61, 2.87, 2.06, 8.84, repro,
2006-01-11,-0.15, -1.62, 12.20, 2.90, 2.03, 8.70, repro,
2006-01-12,-0.86, -2.34, -3.82, 3.50, 2.56, 10.68, repro,
2006-01-13,-0.34, 0.57, 7.14, 3.10, 2.16, 9.34, repro,
2006-01-14,-1.12, 1.12, 1.93, 2.76, 1.91, 8.31, repro,
2006-01-15,6.41, 2.18, 6.20, 2.69, 1.85, 8.01, repro,
2006-01-16,-0.07, 0.09, 6.65, 2.83, 2.00, 8.52, repro,
2006-01-17,-1.87, -0.48, 7.20, 2.87, 1.99, 8.48, repro,
2006-01-18,-0.45, -0.51, 10.11, 2.71, 1.85, 8.11, repro,
2006-01-19,-0.89, -0.10, 3.44, 2.76, 1.87, 8.49, repro,
2006-01-20,-0.83, -0.38, 2.81, 2.74, 1.85, 8.38, repro,
2006-01-21,-0.79, -0.50, 0.98, 2.79, 1.88, 8.49, repro,
2006-01-22,0.15, -0.21, -2.33, 2.74, 1.83, 8.39, repro,
2006-01-23,-0.44, -0.09, -2.16, 2.72, 1.82, 8.32, repro,
2006-01-24,-0.67, -0.28, -3.05, 2.97, 1.99, 9.08, repro,
2006-01-25,1.48, -0.32, -0.50, 3.48, 2.32, 11.20, repro,
2006-01-26,-1.54, -0.12, -7.30, 3.55, 2.37, 11.75, repro,
2006-01-27,-0.28, 0.05, 3.86, 3.90, 2.72, 12.94, repro,
2006-01-28,2.63, -1.70, -1.79, 5.39, 4.10, 18.62, repro,
2006-01-29,-0.02, -1.30, 3.51, 3.78, 2.81, 13.14, repro,
2006-01-30,1.85, -1.74, 12.40, 3.70, 2.63, 12.53, repro,
2006-01-31,-1.72, -0.07, 2.87, 4.18, 3.03, 14.88, repro,
2006-02-01,-2.20, -0.08, 3.99, 4.12, 3.16, 13.89, repro,
2006-02-02,-0.44, -1.86, -4.55, 3.92, 3.00, 14.29, repro,
2006-02-03,-2.58, -1.66, 5.02, 4.31, 3.00, 14.49, repro,
2006-02-04,-0.61, -1.68, 0.78, 4.27, 3.18, 13.88, repro,
2006-02-05,-1.77, -0.29, 9.01, 5.53, 3.15, 16.03, repro,
2006-02-06,-3.12, 0.98, 2.87, 4.17, 2.94, 13.96, repro,
2006-02-07,-1.94, 0.25, -6.30, 3.99, 2.77, 12.98, repro,
2006-02-08,1.14, 0.18, -18.83, 4.10, 2.76, 14.31, repro,
2006-02-09,0.97, -0.90, -3.15, 4.36, 2.86, 15.35, repro,
2006-02-10,2.24, 0.19, -3.14, 4.42, 3.27, 14.75, repro,
2006-02-11,-1.77, 0.18, -8.44, 2.17, 1.52, 6.98, repro,
2006-02-12,-0.64, -0.02, -7.61, 2.17, 1.52, 6.97, repro,
2006-02-13,-1.69, -0.66, -5.35, 2.17, 1.53, 6.99, repro,
2006-02-14,-2.67, -0.03, -2.18, 2.18, 1.52, 6.98, repro,
2006-02-15,-0.86, 0.18, 0.19, 2.21, 1.53, 7.06, repro,
2006-02-16,-1.02, 0.28, -2.14, 2.20, 1.52, 7.04, repro,
2006-02-17,-1.01, -0.26, -3.24, 2.24, 1.57, 7.16, repro,
2006-02-18,-1.50, -0.12, -3.65, 2.19, 1.53, 6.99, repro,
2006-02-19,-1.21, -0.00, 0.53, 2.19, 1.54, 7.02, repro,
2006-02-20,-1.53, 0.03, 1.62, 2.19, 1.53, 7.00, repro,
2006-02-21,-1.67, 0.66, 0.72, 2.21, 1.53, 7.03, repro,
2006-02-22,-0.74, -0.60, 7.50, 2.20, 1.54, 7.06, repro,
2006-02-23,-1.55, -0.30, -4.00, 2.19, 1.53, 6.99, repro,
2006-02-24,-0.92, 0.29, -0.45, 2.18, 1.54, 7.01, repro,
2006-02-25,-1.91, -0.07, -1.97, 2.18, 1.53, 7.00, repro,
2006-02-26,-0.17, 0.20, 5.37, 2.18, 1.52, 6.95, repro,
2006-02-27,-1.44, 0.59, 12.89, 2.19, 1.53, 7.03, repro,
2006-02-28,-1.41, 0.18, 9.74, 2.22, 1.55, 7.09, repro,
2006-03-01,-3.09, -0.41, 6.26, 2.30, 1.61, 7.38, repro,
2006-03-02,-0.61, -0.44, 4.28, 2.17, 1.54, 6.99, repro,
2006-03-03,-2.09, 0.13, 5.24, 2.24, 1.55, 7.17, repro,
2006-03-04,-0.39, -0.05, 2.45, 2.19, 1.54, 7.03, repro,
2006-03-05,-1.46, 0.46, 6.14, 2.18, 1.54, 6.98, repro,
2006-03-06,-2.09, -0.20, 4.31, 2.16, 1.55, 7.02, repro,
2006-03-07,-1.40, -0.22, 1.49, 2.16, 1.55, 6.99, repro,
2006-03-08,-1.25, 0.51, 0.29, 2.18, 1.55, 7.08, repro,
2006-03-09,-1.53, -1.03, 11.11, 2.16, 1.53, 6.94, repro,
2006-03-10,-1.09, -0.60, 12.52, 2.18, 1.54, 7.00, repro,
2006-03-11,-5.05, -2.74, 2.27, 2.21, 1.56, 7.09, repro,
2006-03-12,-1.36, -0.81, 5.38, 2.21, 1.56, 7.10, repro,
2006-03-13,-0.33, -0.00, 0.06, 2.22, 1.57, 7.19, repro,
2006-03-14,-2.46, -0.32, 7.39, 2.22, 1.57, 7.21, repro,
2006-03-15,-1.80, -0.02, 1.64, 2.24, 1.56, 7.16, repro,
2006-03-16,-0.70, -0.13, -0.00, 2.29, 1.60, 7.35, repro,
2006-03-17,-1.38, -0.72, 3.47, 2.28, 1.60, 7.33, repro,
2006-03-18,0.23, -0.96, -3.87, 2.21, 1.57, 7.15, repro,
2006-03-19,-0.26, -0.08, -4.59, 2.22, 1.58, 7.20, repro,
2006-03-20,-1.37, -0.57, 4.69, 2.22, 1.58, 7.19, repro,
2006-03-21,-2.02, -0.08, 5.63, 2.21, 1.57, 7.11, repro,
2006-03-22,-1.83, -0.53, -3.88, 2.22, 1.61, 7.21, repro,
2006-03-23,-0.15, 0.23, -2.44, 2.26, 1.61, 7.21, repro,
2006-03-24,-0.05, -2.83, -2.96, 2.26, 1.60, 7.21, repro,
2006-03-25,1.00, 1.15, 1.26, 2.55, 1.82, 8.24, repro,
2006-03-26,-1.30, -0.49, 6.25, 2.27, 1.60, 7.25, repro,
2006-03-27,-0.91, -0.05, 3.28, 2.25, 1.61, 7.19, repro,
2006-03-28,-0.51, -0.52, 10.97, 2.18, 1.58, 7.05, repro,
2006-03-29,-1.24, -0.91, 6.35, 2.14, 1.56, 6.99, repro,
2006-03-30,-1.05, -0.13, 4.44, 2.14, 1.56, 6.96, repro,
2006-03-31,-2.47, -0.51, 8.95, 2.13, 1.55, 6.95, repro,
2006-04-01,-1.49, -0.18, 7.72, 2.15, 1.56, 7.02, repro,
2006-04-02,-1.31, -0.08, -1.14, 2.18, 1.62, 7.20, repro,
2006-04-03,-0.63, -0.70, 3.27, 2.14, 1.57, 7.02, repro,
2006-04-04,-0.55, -0.71, 2.30, 2.14, 1.56, 6.98, repro,
2006-04-05,-0.77, -0.47, 7.27, 2.21, 1.64, 7.33, repro,
2006-04-06,-1.53, -1.00, 8.15, 2.19, 1.58, 7.17, repro,
2006-04-07,-0.87, 0.41, 0.69, 2.27, 1.62, 7.39, repro,
2006-04-08,-1.36, -0.52, 0.16, 2.28, 1.61, 7.41, repro,
2006-04-09,-0.67, -1.11, 4.13, 2.13, 1.56, 7.03, repro,
2006-04-10,-1.37, -0.65, 5.49, 2.14, 1.55, 7.01, repro,
2006-04-11,0.24, 0.40, 9.75, 2.64, 1.86, 8.84, repro,
2006-04-12,-1.37, -0.23, 0.84, 2.20, 1.59, 7.26, repro,
2006-04-13,-1.61, -1.57, 0.47, 2.14, 1.56, 7.03, repro,
2006-04-14,-2.79, -0.86, 10.88, 2.13, 1.57, 7.05, repro,
2006-04-15,-1.11, -1.01, 8.59, 2.13, 1.56, 7.03, repro,
2006-04-16,-1.04, -0.86, 7.42, 2.12, 1.55, 6.97, repro,
2006-04-17,-2.20, -0.15, 7.45, 2.14, 1.55, 6.99, repro,
2006-04-18,-0.59, -0.29, 3.10, 2.13, 1.56, 7.01, repro,
2006-04-19,-0.97, -0.39, 0.43, 2.17, 1.60, 7.18, repro,
2006-04-20,-0.98, -0.91, 5.05, 2.18, 1.60, 7.22, repro,
2006-04-21,-0.53, 0.04, 1.40, 2.14, 1.55, 7.04, repro,
2006-04-22,-1.01, -1.00, 5.29, 2.13, 1.55, 6.98, repro,
2006-04-23,-0.86, 0.20, -0.87, 2.17, 1.60, 7.16, repro,
2006-04-24,-0.36, -0.39, -0.24, 2.17, 1.60, 7.16, repro,
2006-04-25,-1.10, -0.04, 2.60, 2.17, 1.60, 7.17, repro,
2006-04-26,-0.23, 0.41, 1.30, 2.20, 1.61, 7.28, repro,
2006-04-27,-0.81, -0.18, -1.09, 2.22, 1.59, 7.20, repro,
2006-04-28,-0.92, 0.57, -1.62, 2.19, 1.56, 7.08, repro,
2006-04-29,-1.53, -0.60, -0.93, 2.13, 1.55, 7.01, repro,
2006-04-30,-0.51, 0.33, 5.20, 2.15, 1.56, 7.08, repro,
2006-05-01,0.10, -0.61, -1.26, 2.16, 1.56, 7.11, repro,
2006-05-02,-0.71, -0.11, -1.91, 2.16, 1.55, 7.07, repro,
2006-05-03,-0.07, 0.02, 0.81, 2.12, 1.55, 6.98, repro,
2006-05-04,-1.48, 0.00, 1.19, 2.14, 1.55, 7.02, repro,
2006-05-05,-1.39, -0.31, 4.90, 2.14, 1.56, 7.08, repro,
2006-05-06,-1.60, -1.08, 8.62, 2.15, 1.55, 7.06, repro,
2006-05-07,0.17, -0.18, 0.83, 2.15, 1.56, 7.07, repro,
2006-05-08,-0.32, -0.79, -1.81, 2.14, 1.55, 7.04, repro,
2006-05-09,-0.32, -0.68, -0.00, 2.20, 1.58, 7.12, repro,
2006-05-10,-1.43, -0.06, -0.75, 2.14, 1.55, 7.04, repro,
2006-05-11,-2.03, -0.63, 2.33, 2.14, 1.55, 7.08, repro,
2006-05-12,-0.38, -0.91, 3.56, 2.14, 1.55, 7.05, repro,
2006-05-13,-0.41, -0.44, 1.63, 2.15, 1.55, 7.08, repro,
2006-05-14,-1.04, -0.05, -0.76, 2.14, 1.56, 7.07, repro,
2006-05-15,-1.29, -0.76, -4.50, 2.12, 1.56, 7.06, repro,
2006-05-16,-1.39, 0.68, -3.12, 2.16, 1.59, 7.24, repro,
2006-05-17,-0.15, -1.63, 2.91, 2.17, 1.60, 7.31, repro,
2006-05-18,-0.99, 0.52, 11.48, 2.29, 1.59, 7.39, repro,
2006-05-19,-1.44, -0.75, 9.73, 2.21, 1.57, 7.17, repro,
2006-05-20,-2.33, -1.07, 5.00, 2.23, 1.58, 7.17, repro,
2006-05-21,1.37, -1.54, 11.03, 2.24, 1.60, 7.25, repro,
2006-05-22,0.16, -0.21, 14.06, 2.22, 1.58, 7.26, repro,
2006-05-23,-2.40, -1.48, 13.49, 2.23, 1.59, 7.25, repro,
2006-05-24,-2.95, 0.32, 1.22, 2.21, 1.58, 7.21, repro,
2006-05-25,-0.43, 0.13, 2.44, 2.32, 1.64, 7.52, repro,
2006-05-26,-1.34, -0.83, 6.08, 2.28, 1.63, 7.42, repro,
2006-05-27,0.78, -0.50, 5.94, 2.27, 1.63, 7.40, repro,
2006-05-28,0.24, -0.67, 7.64, 2.21, 1.59, 7.26, repro,
2006-05-29,-0.08, -0.69, 2.66, 2.21, 1.59, 7.24, repro,
2006-05-30,-1.47, 0.20, 2.06, 2.26, 1.62, 7.39, repro,
2006-05-31,-1.24, -0.62, 1.75, 2.23, 1.59, 7.25, repro,
2006-06-01,0.10, -0.13, 2.87, 2.27, 1.63, 7.40, repro,
2006-06-02,-1.79, -0.16, -1.66, 2.39, 1.69, 7.79, repro,
2006-06-03,-0.52, 0.52, 6.43, 2.28, 1.61, 7.40, repro,
2006-06-04,-2.60, 0.28, 5.39, 2.29, 1.62, 7.50, repro,
2006-06-05,-0.84, 0.49, 5.66, 2.27, 1.62, 7.38, repro,
2006-06-06,-0.85, 0.58, 6.24, 2.28, 1.62, 7.39, repro,
2006-06-07,-1.90, -0.39, 5.45, 2.32, 1.65, 7.52, repro,
2006-06-08,-0.33, -0.95, 0.01, 2.21, 1.58, 7.18, repro,
2006-06-09,-0.60, -0.20, 1.85, 2.22, 1.58, 7.20, repro,
2006-06-10,-0.72, -0.47, 8.55, 2.23, 1.59, 7.23, repro,
2006-06-11,-1.97, -0.16, 5.80, 2.22, 1.59, 7.22, repro,
2006-06-12,-3.18, -1.14, 11.58, 2.46, 1.79, 8.06, repro,
2006-06-13,-0.32, -1.10, 8.92, 2.30, 1.67, 7.53, repro,
2006-06-14,-0.68, -0.75, 4.57, 2.22, 1.58, 7.20, repro,
2006-06-15,-1.39, -0.39, 7.56, 2.24, 1.63, 7.35, repro,
2006-06-16,-0.61, 1.01, 7.55, 2.35, 1.73, 7.84, repro,
2006-06-30,-1.36, 4.68, 38.63, 5.66, 3.41, 16.62, repro,
2006-07-01,-1.44, -1.50, 7.55, 2.19, 1.59, 7.33, repro,
2006-07-02,-0.04, 0.25, 3.42, 2.21, 1.64, 7.44, repro,
2006-07-03,-1.03, 0.19, -1.85, 2.21, 1.62, 7.44, repro,
2006-07-04,-1.65, 0.05, 2.06, 2.25, 1.62, 7.46, repro,
2006-07-05,-1.74, -1.38, 4.02, 2.20, 1.60, 7.33, repro,
2006-07-07,-0.86, -0.37, 0.24, 2.18, 1.59, 7.29, repro,
2006-07-08,-0.93, -0.11, 0.09, 2.21, 1.58, 7.31, repro,
2006-07-09,-2.02, -0.70, 6.67, 2.20, 1.58, 7.26, repro,
2006-07-10,-0.53, -1.16, 7.37, 2.27, 1.65, 7.50, repro,
2006-07-11,-2.16, 0.04, 12.15, 2.19, 1.60, 7.38, repro,
2006-07-12,-0.21, -0.80, -0.21, 2.19, 1.60, 7.38, repro,
2006-07-13,-0.02, -0.03, 6.29, 2.20, 1.59, 7.36, repro,
2006-07-14,-2.80, 0.56, 10.03, 2.20, 1.58, 7.30, repro,
2006-07-15,-1.15, -0.66, 9.38, 2.18, 1.57, 7.23, repro,
2006-07-16,-2.00, -0.28, 6.36, 2.20, 1.59, 7.35, repro,
2006-07-17,-0.97, 0.44, 6.08, 2.23, 1.65, 7.57, repro,
2006-07-18,-1.77, 0.03, 6.59, 2.12, 1.56, 7.08, repro,
2006-07-19,-1.10, -0.02, 4.41, 2.14, 1.55, 7.08, repro,
2006-07-20,-1.45, 0.88, 6.04, 2.12, 1.55, 7.01, repro,
2006-07-21,-0.60, 0.25, 8.16, 2.13, 1.55, 7.04, repro,
2006-07-22,-1.72, -0.05, 6.84, 2.15, 1.57, 7.16, repro,
2006-07-23,-2.50, 1.47, 8.47, 2.13, 1.57, 7.12, repro,
2006-07-24,-1.32, 0.67, 6.91, 2.13, 1.56, 7.09, repro,
2006-07-25,-0.04, -0.67, 5.40, 2.13, 1.55, 7.02, repro,
2006-07-26,-2.86, 0.31, 15.04, 2.12, 1.55, 7.00, repro,
2006-07-27,-2.20, -0.47, 12.18, 2.14, 1.57, 7.10, repro,
2006-07-28,-2.25, -0.94, -3.13, 2.21, 1.68, 7.38, repro,
2006-07-29,-1.87, 0.50, 13.72, 2.12, 1.56, 7.06, repro,
2006-07-30,-0.32, -0.57, 7.81, 2.17, 1.62, 7.26, repro,
2006-07-31,-1.22, -0.71, 12.73, 2.15, 1.59, 7.25, repro,
2006-08-01,-0.78, -0.28, 11.88, 2.14, 1.57, 7.18, repro,
2006-08-02,-0.26, -1.69, 7.73, 2.17, 1.62, 7.40, repro,
2006-08-03,-0.40, -0.25, 4.84, 2.20, 1.67, 7.50, repro,
2006-08-04,-1.03, -1.36, 11.37, 2.22, 1.64, 7.45, repro,
2006-08-05,-1.84, -1.37, 13.01, 2.21, 1.66, 7.47, repro,
2006-08-06,-1.03, -0.98, 13.50, 2.18, 1.60, 7.35, repro,
2006-08-07,-1.00, 1.10, 10.61, 2.19, 1.62, 7.43, repro,
2006-08-08,-2.39, 0.11, 5.85, 2.37, 1.73, 8.02, repro,
2006-08-09,-0.50, 0.91, 11.14, 2.13, 1.57, 7.14, repro,
2006-08-10,-0.93, 0.36, 8.86, 2.12, 1.57, 7.09, repro,
2006-08-11,-1.03, -0.60, 12.46, 2.13, 1.55, 7.06, repro,
2006-08-12,-1.55, -0.68, 16.85, 2.14, 1.56, 7.12, repro,
2006-08-13,-1.05, -0.29, 11.87, 2.19, 1.62, 7.30, repro,
2006-08-14,-1.65, -0.09, 11.13, 2.18, 1.62, 7.31, repro,
2006-08-15,-2.49, -0.54, 14.43, 2.27, 1.65, 7.39, repro,
2006-08-16,-0.00, 0.46, 9.02, 2.16, 1.62, 7.19, repro,
2006-08-17,-0.86, -0.76, 7.36, 2.17, 1.61, 7.20, repro,
2006-08-18,-0.94, 0.61, 4.69, 2.22, 1.67, 7.39, repro,
2006-08-19,-1.00, 0.26, 9.38, 2.25, 1.70, 7.61, repro,
2006-08-20,-0.67, -0.14, 16.26, 2.13, 1.56, 7.05, repro,
2006-08-21,-1.56, -0.84, 13.32, 2.14, 1.58, 7.14, repro,
2006-08-22,-1.50, -0.21, 14.86, 2.15, 1.58, 7.16, repro,
2006-08-23,-2.77, 0.19, 18.04, 2.13, 1.58, 7.12, repro,
2006-08-24,-1.13, 0.02, 11.16, 2.17, 1.61, 7.36, repro,
2006-08-25,-1.40, -0.47, 17.90, 2.15, 1.62, 7.31, repro,
2006-08-26,-2.10, -0.85, 14.12, 2.51, 2.00, 8.95, repro,
2006-08-27,-1.65, -0.55, 11.30, 2.20, 1.67, 7.52, repro,
2006-08-28,-1.63, 0.26, 8.79, 2.24, 1.68, 7.62, repro,
2006-08-29,-1.53, -0.13, 10.13, 2.24, 1.68, 7.62, repro,
2006-08-30,-0.99, -0.74, 13.04, 2.20, 1.68, 7.57, repro,
2006-08-31,-1.24, -0.41, 9.79, 2.18, 1.66, 7.48, repro,
2006-09-01,-1.81, 0.06, 7.15, 2.20, 1.67, 7.53, repro,
2006-09-02,-1.38, 0.59, 8.08, 2.50, 1.92, 8.55, repro,
2006-09-03,-1.23, -0.48, 10.90, 2.58, 2.04, 9.23, repro,
2006-09-04,-0.97, -0.91, 9.99, 2.35, 1.76, 8.09, repro,
2006-09-05,-0.60, -0.38, 3.48, 2.28, 1.70, 7.73, repro,
2006-09-06,-0.88, -0.18, 4.70, 2.21, 1.68, 7.58, repro,
2006-09-07,-1.24, -0.08, 15.97, 2.27, 1.72, 7.84, repro,
2006-09-08,-0.51, -0.66, 13.84, 2.28, 1.72, 7.84, repro,
2006-09-09,-1.28, -1.50, 14.66, 2.18, 1.63, 7.36, repro,
2006-09-10,-1.17, -0.72, 13.17, 2.18, 1.64, 7.39, repro,
2006-09-11,-1.26, 0.03, 10.73, 2.18, 1.63, 7.35, repro,
2006-09-12,0.21, -0.98, 7.19, 2.18, 1.63, 7.34, repro,
2006-09-13,-0.76, 0.02, 13.87, 2.19, 1.63, 7.32, repro,
2006-09-14,-0.02, 0.20, 11.56, 2.27, 1.66, 7.49, repro,
2006-09-15,-0.39, -0.39, 16.65, 2.22, 1.62, 7.34, repro,
2006-09-16,-0.09, 0.27, 13.16, 2.15, 1.59, 7.21, repro,
2006-09-17,-1.32, -0.52, 12.56, 2.14, 1.59, 7.20, repro,
2006-09-18,-1.30, -0.28, 16.80, 2.18, 1.59, 7.23, repro,
2006-09-19,-1.26, -1.09, 17.90, 2.23, 1.68, 7.52, repro,
2006-09-20,-1.49, 0.02, 13.14, 2.15, 1.59, 7.22, repro,
2006-09-21,-1.95, -4.28, 19.08, 2.20, 1.65, 7.41, repro,
2006-09-22,-0.66, -1.15, 15.82, 2.30, 1.69, 7.56, repro,
2006-09-23,-0.86, 0.49, 10.61, 2.20, 1.64, 7.33, repro,
2006-09-24,-0.67, -0.64, 11.82, 2.34, 1.67, 7.59, repro,
2006-09-25,-1.32, -0.39, 11.71, 2.26, 1.64, 7.43, repro,
2006-09-26,0.02, -0.23, 10.67, 2.23, 1.63, 7.34, repro,
2006-09-27,-1.48, -0.45, 11.01, 2.20, 1.61, 7.21, repro,
2006-09-28,-0.62, 0.04, 12.45, 2.15, 1.60, 7.16, repro,
2006-09-29,-1.61, -0.20, 16.32, 2.17, 1.61, 7.23, repro,
2006-09-30,-0.98, -1.67, 21.42, 2.23, 1.66, 7.51, repro,
2006-10-01,-0.78, -0.38, 19.71, 2.22, 1.65, 7.50, repro,
2006-10-02,-1.73, -0.27, 14.40, 2.23, 1.68, 7.42, repro,
2006-10-03,-0.89, 0.34, 12.18, 2.25, 1.70, 7.55, repro,
2006-10-04,-0.84, 0.18, 14.70, 2.20, 1.63, 7.25, repro,
2006-10-05,-0.51, -0.12, 16.58, 2.19, 1.60, 7.25, repro,
2006-10-06,-2.37, -1.12, 17.12, 2.20, 1.61, 7.29, repro,
2006-10-07,-1.50, -1.28, 7.42, 2.35, 1.77, 7.95, repro,
2006-10-08,-1.06, 0.05, 10.03, 2.27, 1.69, 7.61, repro,
2006-10-09,0.13, -0.44, 14.07, 2.59, 2.17, 8.97, repro,
2006-10-10,-0.65, 0.05, 6.52, 2.25, 1.68, 7.56, repro,
2006-10-11,-1.36, -0.32, 9.95, 2.23, 1.66, 7.52, repro,
2006-10-12,-1.07, 0.19, 15.05, 2.19, 1.62, 7.26, repro,
2006-10-13,-1.16, 0.10, 17.43, 2.12, 1.59, 7.10, repro,
2006-10-14,-0.60, 0.42, 13.93, 2.19, 1.66, 7.49, repro,
2006-10-15,-1.58, -0.35, 17.92, 2.17, 1.64, 7.31, repro,
2006-10-16,-0.16, -1.44, 31.21, 2.17, 1.62, 7.35, repro,
2006-10-17,-0.87, -0.03, 20.80, 2.31, 1.68, 7.90, repro,
2006-10-18,-2.02, 0.52, 13.20, 2.22, 1.64, 7.43, repro,
2006-10-19,-0.52, -0.40, 15.03, 2.46, 1.78, 8.07, repro,
2006-10-20,-0.74, -0.13, 9.56, 2.48, 1.85, 8.73, repro,
2006-10-21,-1.81, -0.16, 9.36, 2.48, 1.87, 8.71, repro,
2006-10-22,-1.63, 0.43, 10.91, 2.29, 1.67, 7.79, repro,
2006-10-23,-2.05, 0.05, 10.63, 2.27, 1.70, 7.68, repro,
2006-10-24,-2.62, 0.58, 14.31, 2.36, 1.72, 7.96, repro,
2006-10-25,-0.38, -0.46, 9.11, 2.41, 1.76, 8.06, repro,
2006-10-26,-0.19, -0.42, 8.10, 2.31, 1.73, 7.93, repro,
2006-10-27,-0.48, -0.19, 6.10, 2.21, 1.69, 7.53, repro,
2006-10-28,-1.69, 0.06, 7.99, 2.35, 1.75, 7.83, repro,
2006-10-29,-2.41, 0.31, 14.52, 2.18, 1.66, 7.48, repro,
2006-10-30,-0.93, -0.20, 13.18, 2.17, 1.64, 7.37, repro,
2006-10-31,-1.19, 0.06, 10.87, 2.18, 1.66, 7.48, repro,
2006-11-01,-1.30, -0.47, 12.05, 2.46, 1.84, 8.26, repro,
2006-11-02,-0.43, -1.44, 11.00, 2.19, 1.65, 7.46, repro,
2006-11-03,-1.03, 1.20, 11.26, 2.18, 1.66, 7.46, repro,
2006-11-04,-2.05, 1.33, 6.98, 2.24, 1.67, 7.52, repro,
2006-11-05,-1.34, 0.04, 5.25, 2.27, 1.69, 7.65, repro,
2006-11-06,-3.64, -0.74, 2.67, 2.13, 1.60, 7.19, repro,
2006-11-07,0.04, -1.94, 5.97, 2.32, 1.73, 7.72, repro,
2006-11-08,-1.90, -2.25, 9.75, 2.24, 1.67, 7.45, repro,
2006-11-09,-0.65, -0.39, 15.98, 2.33, 1.74, 7.76, repro,
2006-11-10,0.12, 0.24, 10.71, 2.22, 1.62, 7.32, repro,
2006-11-11,0.45, 0.87, 13.22, 2.25, 1.65, 7.43, repro,
2006-11-12,-0.61, -0.08, 8.96, 2.31, 1.71, 7.59, repro,
2006-11-13,-2.39, -1.30, 17.97, 2.29, 1.70, 7.59, repro,
2006-11-14,-1.32, -0.78, 12.30, 2.13, 1.58, 7.13, repro,
2006-11-15,-1.10, 0.38, 12.83, 2.12, 1.60, 7.22, repro,
2006-11-16,-0.58, 0.21, 8.27, 2.12, 1.59, 7.15, repro,
2006-11-17,-0.69, -0.32, 9.27, 2.10, 1.57, 7.04, repro,
2006-11-18,-0.50, -0.82, 7.21, 2.10, 1.58, 7.10, repro,
2006-11-19,0.02, 1.16, 7.28, 2.15, 1.62, 7.29, repro,
2006-11-20,2.41, 0.18, -2.41, 2.13, 1.60, 7.25, repro,
2006-11-21,-0.45, 0.19, 14.12, 2.11, 1.59, 7.12, repro,
2006-11-22,-0.75, -0.22, 11.72, 2.11, 1.58, 7.10, repro,
2006-11-23,-0.76, -0.32, 4.94, 2.13, 1.62, 7.23, repro,
2006-11-24,-1.17, -2.05, -0.27, 2.11, 1.62, 7.21, repro,
2006-11-25,0.13, -0.84, 6.42, 2.14, 1.61, 7.16, repro,
2006-11-26,-1.21, 0.34, 7.67, 2.15, 1.61, 7.22, repro,
2006-11-27,-1.22, -0.53, 7.98, 2.16, 1.60, 7.18, repro,
2006-11-28,-0.22, -0.57, 8.39, 2.10, 1.58, 7.06, repro,
2006-11-29,-1.47, -0.95, 5.97, 2.53, 1.96, 8.94, repro,
2006-11-30,-0.02, 0.18, 4.74, 2.18, 1.63, 7.38, repro,
2006-12-01,-1.67, 0.34, -1.22, 2.11, 1.60, 7.17, repro,
2006-12-02,-0.02, -0.38, -3.12, 2.13, 1.60, 7.21, repro,
2006-12-03,-1.36, -0.04, 1.02, 2.17, 1.62, 7.28, repro,
2006-12-04,-0.35, 0.10, -0.97, 2.15, 1.60, 7.16, repro,
2006-12-05,0.63, -0.52, -0.47, 2.12, 1.64, 7.21, repro,
2006-12-06,-0.54, -0.26, -0.21, 2.19, 1.72, 7.51, repro,
2006-12-07,-0.42, 0.13, 1.76, 2.16, 1.67, 7.37, repro,
2006-12-08,-0.62, -0.31, 6.29, 2.16, 1.65, 7.35, repro,
2006-12-09,-1.86, -0.59, 10.55, 2.21, 1.72, 7.49, repro,
2006-12-10,-0.93, -0.80, 13.25, 2.17, 1.65, 7.28, repro,
2006-12-11,-2.14, -0.60, 8.12, 2.16, 1.62, 7.23, repro,
2006-12-12,-0.65, -0.34, -1.11, 2.19, 1.68, 7.41, repro,
2006-12-13,-2.81, -0.43, 7.67, 2.18, 1.68, 7.43, repro,
2006-12-14,0.23, -0.65, 8.74, 2.09, 1.60, 7.09, repro,
2006-12-15,0.66, -1.03, 3.09, 2.22, 1.73, 7.67, repro,
2006-12-16,0.24, -1.15, 6.26, 2.22, 1.72, 7.43, repro,
2006-12-17,-0.41, -0.11, 1.62, 2.32, 1.87, 8.20, repro,
2006-12-18,0.37, -0.34, 0.51, 2.45, 1.92, 8.60, repro,
2006-12-19,-0.49, 0.15, 4.18, 2.23, 1.81, 7.91, repro,
2006-12-20,0.63, -0.70, 6.86, 2.32, 1.81, 7.87, repro,
2006-12-21,-0.92, -0.38, 1.99, 2.13, 1.71, 7.45, repro,
2006-12-22,-0.27, -0.84, 3.30, 2.29, 1.89, 8.13, repro,
2006-12-23,-0.26, -1.29, -1.55, 2.23, 1.78, 7.85, repro,
2006-12-24,0.23, 0.30, -1.49, 2.10, 1.62, 7.16, repro,
2006-12-25,2.84, 0.64, 0.99, 2.16, 1.71, 7.47, repro,
2006-12-26,-1.73, -1.62, -1.10, 2.14, 1.66, 7.32, repro,
2006-12-27,0.46, -3.06, 4.78, 2.17, 1.73, 7.63, repro,
2006-12-28,-1.04, -1.72, 3.24, 2.48, 2.05, 9.17, repro,
2006-12-29,0.18, -1.41, -14.64, 2.26, 1.81, 7.89, repro,
2006-12-30,0.36, -1.19, -2.57, 2.22, 1.73, 7.54, repro,
2006-12-31,-0.26, -0.93, 3.35, 2.39, 1.92, 8.49, repro,
2007-01-01,-0.49, -0.48, 0.89, 2.42, 1.98, 8.69, repro,
2007-01-02,-0.75, 0.60, 2.40, 2.31, 1.87, 8.19, repro,
2007-01-03,-0.03, -2.54, 9.62, 2.17, 1.75, 7.64, repro,
2007-01-04,-1.36, -2.62, 5.05, 2.11, 1.64, 7.25, repro,
2007-01-05,0.42, -1.57, -1.23, 2.16, 1.73, 7.58, repro,
2007-01-06,-0.51, -1.84, -6.68, 2.15, 1.75, 7.60, repro,
2007-01-07,-1.23, 1.02, -3.45, 2.16, 1.64, 7.30, repro,
2007-01-08,-0.22, -0.09, -9.08, 2.16, 1.67, 7.37, repro,
2007-01-09,-1.63, -1.12, -7.35, 2.18, 1.65, 7.34, repro,
2007-01-10,-1.12, -1.22, 5.47, 2.15, 1.61, 7.16, repro,
2007-01-11,-0.04, -1.09, 2.25, 2.21, 1.63, 7.33, repro,
2007-01-12,0.63, -1.03, -7.90, 2.12, 1.61, 7.20, repro,
2007-01-13,0.52, -1.41, -5.87, 2.13, 1.59, 7.04, repro,
2007-01-14,0.91, -0.51, -12.56, 2.09, 1.56, 7.00, repro,
2007-01-15,0.58, -0.84, -10.69, 2.06, 1.56, 6.95, repro,
2007-01-16,1.03, -1.01, -8.55, 2.11, 1.58, 7.07, repro,
2007-01-17,1.43, -0.86, -5.11, 2.10, 1.61, 7.12, repro,
2007-01-18,0.22, -0.99, -10.29, 2.15, 1.66, 7.38, repro,
2007-01-19,-0.08, -0.56, -4.86, 2.13, 1.58, 7.22, repro,
2007-01-20,-0.14, -0.46, -1.96, 2.13, 1.59, 7.24, repro,
2007-01-21,-0.17, -0.13, -2.57, 2.07, 1.56, 6.91, repro,
2007-01-22,-0.08, -0.12, -5.67, 2.05, 1.56, 6.90, repro,
2007-01-23,0.48, -0.94, -6.66, 2.07, 1.57, 6.97, repro,